Temp_Advection
nan nan nan nan nan nan nan nan nan nan nan nan nan nan nan nan nan nan nan nan nan nan nan nan nan nan nan nan nan nan nan nan nan nan nan nan nan nan nan nan nan nan nan nan nan nan nan nan nan
nan 0 0 -0 -0 0 -0 -0 0 0 -0 0 -0 -1 -0 0 -0 0 -0 0 0 0 0 0 0 0 0 -0 -0 -0 -0 0 -0 -0 0 -0 -0 0 0 -0 -0 -0 -0 -0 -0 -0 -0 -0 nan
nan -0 -0 -0 0 -0 -0 -0 0 0 0 -0 -0 -0 -0 0 -1 -0 -0 0 0 0 0 0 0 0 -0 -0 -0 -0 -0 -0 -0 -0 -0 -0 0 0 0 -0 -0 -0 -0 -0 -0 -0 -0 -0 nan
nan 0 -0 -0 -0 -0 -0 -0 -0 -0 -0 0 -0 -0 0 -0 -0 -0 0 0 0 0 -0 0 -0 -0 -0 0 -0 -0 -0 -0 -0 -0 -0 0 0 -0 -0 -0 -0 -0 -0 -0 -0 -0 -0 -0 nan
nan -0 -0 0 -0 -0 -0 -0 -0 -0 -0 1 0 0 0 0 0 0 0 0 0 -0 -0 -0 -0 0 0 -0 0 -0 -0 -0 -0 -0 -0 -0 -0 -0 -0 -0 -0 -0 -0 -0 -0 -0 -0 -0 nan
nan -0 -0 0 -0 0 0 0 -0 -0 -0 0 0 -0 0 0 -0 -0 -0 0 0 -0 -0 -0 0 0 0 -0 0 0 -0 0 -0 -0 0 -0 -0 -0 -0 -0 -0 -0 -0 -0 -0 -0 -0 -0 nan
nan -0 -0 0 0 0 0 -0 -0 -0 0 0 -1 -0 0 1 0 -0 -0 -0 -0 -0 -0 -0 -0 -0 0 0 0 -0 -0 -0 0 -0 -0 0 0 -0 -0 -0 -0 -0 -0 -0 -0 -0 -0 -0 nan
nan -0 0 0 0 -0 0 0 0 0 0 0 -0 -0 -0 -0 0 0 -0 -0 -0 -0 -0 -0 -0 -0 -0 -0 -0 -0 -0 -0 -0 -0 -0 -0 0 0 0 -0 -0 -0 -0 -0 -0 -0 -0 -0 nan
nan -0 0 -0 0 0 0 -0 0 -0 -0 0 0 -0 -1 -1 -0 -0 -0 -1 -0 -0 -0 -0 -0 -0 -0 -0 -0 -0 -0 -0 -0 -0 -0 -0 -0 -0 -0 -0 -0 -0 -0 -0 -0 -0 -0 -0 nan
nan -0 -0 -0 -0 -0 1 0 -0 -0 -0 -0 0 0 0 0 -0 -1 -1 -1 -1 -0 -0 -0 0 -0 -0 -0 -0 -0 -0 -0 -0 -0 -0 -0 0 -0 -0 -0 -0 -0 -0 0 0 0 0 0 nan
nan -0 -0 -0 -2 -1 0 -0 0 -1 -0 -1 -1 -1 -0 -0 -0 -1 -1 -0 -0 -0 -0 -0 -0 0 0 0 0 0 0 0 -0 0 -0 -0 -0 -0 -0 -0 -0 0 0 0 0 -0 -0 0 nan
nan -1 -0 -0 0 0 -0 -0 -0 -0 -0 -1 -1 -1 -1 -0 -0 0 -0 -0 0 0 -0 -0 -0 -0 0 0 0 0 0 0 0 0 0 -0 -0 -0 -0 -0 -0 -0 -0 -0 -0 -0 -0 -0 nan
nan -0 -0 0 1 -0 -0 -0 -0 -0 0 1 1 -0 -1 -0 -0 -0 -0 0 0 0 -0 0 0 0 0 0 0 0 0 0 0 0 0 0 0 0 -0 -0 -0 -0 -0 -0 -0 -0 -0 -1 nan
nan 0 -0 0 0 0 -0 0 -0 0 0 0 0 0 1 1 0 0 0 0 -0 0 0 0 0 0 0 0 0 0 0 0 0 0 0 0 0 0 0 0 0 -0 -0 -0 -0 -0 -0 -0 nan
nan -0 -0 0 -0 0 0 -0 -0 0 0 1 1 1 1 1 0 -0 -0 0 0 0 0 0 0 0 0 0 0 0 0 0 0 0 0 0 0 0 0 0 -0 -0 0 -0 -0 -0 -0 -0 nan
nan -0 0 -0 -0 -0 -0 0 -1 1 1 1 1 1 0 -0 -0 -0 0 0 0 0 0 0 0 1 0 -0 -0 -0 0 0 0 0 0 0 0 0 0 -0 0 0 0 -0 -0 -0 -0 -0 nan
nan -0 0 -0 -0 0 -0 -0 -1 0 1 1 0 0 -0 -0 -0 0 0 0 0 0 0 0 1 1 1 0 -0 0 1 0 0 0 0 0 0 0 0 -0 -0 -0 -0 -0 -0 -0 -0 -0 nan
nan -0 -0 0 -0 -2 -1 -1 -0 0 1 0 1 1 0 0 0 0 0 0 0 1 1 1 1 1 1 0 0 0 0 0 0 -0 -0 -0 -0 0 -0 -0 0 -0 -0 -0 -0 -0 -0 -0 nan
nan 0 0 0 -0 -1 -0 -0 0 0 0 0 1 1 1 0 0 0 0 0 1 1 1 1 1 0 0 0 0 -0 0 -0 0 -0 -0 -0 -0 -0 -0 0 -0 -0 -0 -0 -0 -0 -0 -0 nan
nan -0 -0 -0 -0 -0 -0 -0 0 0 -0 0 0 1 1 0 0 0 0 0 -0 -0 0 0 -0 -0 -0 -0 0 0 0 0 -0 -0 0 0 -0 -0 -0 -0 0 0 0 -0 -0 -0 -0 -1 nan
nan 0 0 -0 -0 -0 -0 -0 0 0 -0 -0 0 1 1 0 -0 -0 -0 0 0 0 -0 -0 -0 -0 -0 0 0 -0 -0 -0 -0 0 0 -0 0 0 0 -0 0 0 -0 -1 -1 -0 -0 -0 nan
nan -0 -0 -0 0 -0 -0 0 0 -0 -0 -0 0 1 0 0 0 -0 0 -0 -0 -0 -0 -0 -0 -0 0 -0 -0 -0 -0 0 0 0 0 0 0 0 -0 -0 -1 -0 -0 -0 -0 -1 -1 -1 nan
nan -0 0 -0 -0 0 0 -0 -0 0 0 0 -0 0 1 1 1 0 -0 -0 0 -0 -0 -0 0 0 -0 -0 -0 -0 -0 -0 -0 -0 -0 0 -0 -1 -1 -0 -0 -0 -0 -0 -0 -1 -1 -0 nan
nan -0 -1 -0 -0 0 0 -0 0 -0 -0 -0 -0 -0 0 1 1 1 0 0 0 0 0 0 0 0 -0 -0 -0 -0 -0 -0 -0 -1 -1 -0 -0 -0 -1 -1 -0 0 0 -0 -1 -1 -1 -0 nan
nan -0 -0 0 -0 -0 -0 -0 -0 -0 -0 -1 -1 -0 0 0 1 1 1 0 0 0 0 0 0 0 0 -0 -0 -0 -0 -0 -0 -0 -0 -0 -0 -0 -0 -0 1 0 1 0 0 -1 -1 -0 nan
nan -0 -0 0 0 -0 -0 0 0 -0 0 -0 -0 -0 0 0 1 1 1 1 0 0 0 0 0 -0 -0 -0 -0 -0 -0 -0 -0 -0 0 0 0 -0 -0 -0 -0 0 1 0 -0 -0 -0 -0 nan
nan -0 -0 -0 0 0 -0 -0 -0 -0 0 1 1 1 1 1 1 0 0 0 0 0 0 -0 -0 -0 -0 -0 -0 -0 -0 -0 -0 -0 -0 0 0 -0 0 0 1 0 0 0 -0 -0 -0 0 nan
nan -0 -0 -0 0 0 -0 -0 0 -0 -0 0 1 0 0 0 0 0 0 0 0 0 -0 -0 -0 -0 -0 -0 -0 -0 -0 -0 -0 -0 -0 -0 -0 0 0 0 1 1 0 0 0 0 0 0 nan
nan -0 -1 -0 -0 0 -0 -0 -0 0 -0 -0 0 0 1 0 0 0 0 0 0 0 -0 0 0 -0 -0 -0 -0 -0 -0 -1 -1 -1 -1 -0 -0 -0 0 0 0 0 0 -0 0 0 0 0 nan
nan nan nan nan nan nan nan nan nan nan nan nan nan nan nan nan nan nan nan nan nan nan nan nan nan nan nan nan nan nan nan nan nan nan nan nan nan nan nan nan nan nan nan nan nan nan nan nan nan
Wind_Speed
4 5 4 1 3 4 1 5 2 2 4 6 13 9 7 4 2 2 20 27 24 25 24 22 19 17 15 13 12 11 11 10 11 10 10 11 11 11 12 13 13 14 14 15 14 13 12 11 10
4 5 2 3 4 2 3 4 7 10 16 14 16 21 13 2 5 13 22 24 25 25 24 21 18 16 15 13 11 10 11 10 10 9 9 10 10 11 12 13 13 13 14 14 13 12 11 10 9
8 6 1 5 3 4 4 5 6 7 8 21 8 8 3 2 13 20 20 27 25 23 21 18 17 15 13 12 11 11 11 10 10 9 9 10 10 11 13 13 12 12 11 11 10 10 10 9 9
7 4 2 4 4 5 3 6 12 4 5 12 10 1 4 3 13 13 23 25 22 21 19 17 15 13 12 12 12 12 10 9 9 8 9 9 10 12 13 12 11 10 10 11 11 10 9 8 9
8 2 3 2 3 4 4 14 16 5 6 21 18 6 4 6 6 18 24 22 21 21 18 16 14 13 12 12 11 10 9 8 8 8 10 10 11 12 12 12 13 12 13 14 14 15 15 13 13
3 2 3 1 3 5 2 14 13 5 6 11 6 10 4 9 15 18 22 23 20 19 17 15 13 12 12 11 10 9 8 7 7 10 11 12 12 12 12 12 12 13 13 15 17 18 17 16 15
4 4 4 4 2 4 3 15 7 8 8 7 14 3 12 19 17 20 21 21 20 18 17 15 14 12 11 10 9 9 8 7 10 11 12 13 13 12 12 13 13 13 13 14 16 18 18 18 17
1 4 4 3 2 3 4 5 12 8 8 18 6 6 9 23 19 21 21 21 19 18 16 14 11 11 11 11 10 9 9 10 11 12 12 13 12 11 11 11 12 12 12 13 14 16 17 18 18
2 4 1 4 7 4 18 2 6 4 15 4 2 10 26 25 22 23 24 23 21 18 15 13 12 12 12 12 11 11 11 12 12 12 11 10 10 10 10 10 10 10 10 11 12 13 15 16 17
4 3 7 5 7 6 30 13 10 6 10 4 8 13 30 28 26 27 28 26 21 18 15 14 12 12 13 12 11 11 11 11 9 9 9 9 8 8 9 8 8 8 7 8 10 12 15 16 18
4 5 4 6 24 19 10 11 7 16 1 11 28 33 32 31 30 26 24 20 18 15 15 14 12 12 12 12 11 11 9 9 7 8 7 6 5 5 6 4 4 5 7 10 13 15 18 19 21
1 10 8 17 26 12 12 12 6 13 5 21 23 31 34 33 31 25 23 23 21 18 14 13 12 12 12 12 10 8 7 7 4 4 4 3 2 3 1 1 4 7 10 12 15 16 20 22 23
5 5 1 6 14 11 17 7 6 7 5 23 30 32 34 32 29 25 19 19 18 16 15 13 12 12 11 11 10 7 5 4 4 2 3 3 1 2 4 6 8 9 10 11 13 17 22 23 22
8 3 4 3 15 11 9 5 5 4 18 25 31 31 31 29 25 22 22 20 17 16 14 13 11 12 11 8 8 6 6 6 6 6 5 5 4 6 7 8 8 8 11 13 16 24 24 20 21
8 6 5 6 3 4 13 4 1 6 24 28 33 32 29 28 26 25 22 19 16 16 18 17 15 13 11 9 8 7 7 13 11 9 9 8 8 8 8 8 8 12 15 17 25 27 20 19 19
6 5 4 3 2 4 5 5 8 12 27 24 25 24 23 24 26 24 22 22 21 23 22 19 16 18 10 2 11 7 10 18 12 11 12 9 9 9 8 10 14 17 21 26 25 22 19 18 18
6 2 2 2 2 3 4 2 11 7 19 14 15 16 15 18 18 22 22 23 24 26 27 22 17 19 19 17 15 13 13 9 8 9 8 9 8 9 12 15 21 31 28 26 24 20 19 19 19
5 3 0 3 2 11 8 5 7 7 14 10 11 11 11 13 15 13 19 18 20 26 25 24 16 17 13 13 10 7 7 6 2 7 6 8 13 15 19 28 23 22 26 25 23 21 20 22 24
4 3 3 2 3 8 4 6 8 14 15 14 13 13 11 10 8 9 10 11 12 14 18 18 12 3 4 5 7 5 3 8 6 5 13 17 15 18 22 22 23 24 25 22 20 19 21 24 29
5 5 3 4 5 8 8 9 7 13 7 11 18 19 19 19 15 12 10 10 7 9 8 6 6 4 3 3 1 7 8 9 10 14 16 17 19 22 23 23 24 22 20 20 23 24 26 26 27
4 5 2 6 7 6 6 6 6 6 11 14 21 24 23 22 22 22 19 18 15 15 17 16 14 11 6 6 7 8 9 10 13 15 17 18 20 20 20 22 23 24 26 30 32 28 26 28 27
2 3 3 8 4 4 3 2 1 1 2 3 13 19 19 21 22 20 18 17 16 16 15 12 11 8 5 4 6 8 10 12 15 17 19 20 19 19 21 24 28 34 36 28 22 25 28 29 29
2 5 5 3 5 5 3 5 3 4 4 6 10 15 20 22 21 23 16 15 16 14 11 8 6 2 3 6 8 10 13 14 15 17 19 20 20 28 30 32 31 26 19 19 19 22 26 27 24
3 5 7 5 3 2 3 5 4 7 8 5 10 17 21 20 19 21 19 13 11 10 8 4 2 2 5 7 9 11 12 11 12 14 17 19 22 24 29 27 25 21 14 15 20 23 21 20 20
6 6 3 4 3 4 2 3 6 11 7 12 18 21 19 18 20 20 18 14 11 7 5 3 3 5 4 6 8 9 10 12 13 16 17 22 24 26 25 23 23 19 16 14 12 18 24 20 18
2 5 5 5 3 3 3 4 4 6 19 28 25 20 18 19 20 17 14 13 11 9 8 5 1 4 8 10 10 11 13 14 17 20 23 26 27 27 25 22 23 25 20 27 18 14 16 16 16
2 2 3 6 2 2 3 4 4 4 6 17 22 18 19 19 19 18 16 14 13 10 5 1 5 9 7 10 10 15 18 18 20 25 30 29 29 26 24 21 22 22 28 17 12 15 16 16 15
2 5 3 3 2 2 3 4 4 5 8 8 12 20 20 21 22 21 18 14 10 5 2 6 12 7 10 13 16 21 22 24 27 31 31 29 26 20 22 21 26 26 25 16 10 14 14 16 18
2 2 6 5 3 4 1 5 5 10 11 10 14 23 26 27 25 21 16 10 6 1 7 13 7 7 11 16 18 21 23 28 31 29 31 28 20 18 23 23 22 22 18 13 11 15 17 19 20
2 3 4 4 3 1 3 5 3 8 13 16 19 24 25 26 22 16 11 7 4 4 4 5 4 11 14 17 19 21 25 26 29 30 29 25 19 18 20 22 22 24 25 13 13 17 20 22 25
Wind_Direction
252 235 168 79 59 67 253 274 262 72 56 62 80 79 111 86 106 188 142 161 165 162 160 164 165 161 157 151 142 139 129 119 110 103 91 79 73 68 62 64 65 67 64 58 54 50 47 44 48
204 197 132 72 88 106 256 270 100 112 124 82 69 43 27 261 127 142 146 168 168 166 164 163 163 162 156 150 145 139 126 119 111 96 82 73 76 69 71 72 70 67 62 55 50 44 42 37 34
167 186 150 110 126 201 174 202 131 128 87 78 75 39 235 328 127 143 155 162 168 165 160 159 160 157 154 152 149 135 130 121 102 90 78 80 79 75 76 77 74 65 55 47 38 32 28 22 20
161 173 84 93 217 260 196 164 103 96 352 65 75 87 343 280 142 157 163 162 163 157 157 159 159 158 159 152 139 133 124 111 102 87 90 93 88 84 82 78 69 60 50 42 35 30 23 18 12
155 128 66 93 263 260 258 146 166 164 141 149 140 185 165 163 175 151 157 159 160 157 157 158 160 161 153 148 136 126 123 114 101 98 102 95 90 87 81 70 63 55 52 47 44 42 36 32 29
123 111 72 147 310 325 44 128 142 178 88 157 156 123 108 158 149 149 157 157 158 156 156 155 158 159 150 139 137 129 127 122 116 116 105 103 103 96 88 80 68 67 58 61 51 44 41 35 30
137 94 169 147 359 15 9 133 113 110 179 193 158 84 134 145 158 148 154 158 159 158 159 161 163 156 150 146 142 139 136 136 126 119 117 114 111 98 89 80 76 72 68 66 57 50 47 41 30
201 93 153 98 79 245 28 105 218 179 163 147 125 148 162 158 161 155 157 162 162 164 164 164 159 159 159 157 147 143 144 137 134 133 126 121 112 97 90 82 78 70 66 61 49 45 39 37 32
185 64 138 188 152 136 50 64 166 126 140 90 204 167 160 158 162 160 161 165 168 166 164 158 158 160 157 155 152 149 146 141 143 138 133 125 114 96 86 78 75 71 62 52 42 35 28 22 18
102 107 203 201 147 169 169 226 166 137 130 55 138 150 157 162 167 166 168 167 168 165 165 158 155 156 155 153 148 147 145 147 143 145 143 130 112 102 94 79 69 61 45 37 22 13 8 2 357
156 187 176 200 171 190 186 145 174 136 235 188 152 156 167 169 174 174 174 172 165 164 172 159 159 154 153 157 153 153 154 158 146 147 146 132 115 108 95 83 52 28 7 5 360 355 352 348 342
195 229 205 189 197 197 139 140 132 166 212 181 163 163 169 174 178 182 181 178 180 180 172 167 168 169 163 168 169 165 163 167 150 141 129 138 127 105 88 341 348 348 351 350 347 344 341 334 324
195 307 271 177 178 172 147 157 191 205 164 169 166 168 177 179 185 187 187 184 189 183 179 181 181 187 187 187 191 190 194 193 194 218 197 167 211 299 299 306 321 325 325 329 329 329 325 320 315
194 130 50 89 146 140 126 145 155 218 167 167 170 179 182 187 192 190 196 199 199 197 197 196 198 196 203 216 225 226 232 241 236 234 227 237 260 274 285 288 291 286 302 307 315 321 322 317 320
123 77 17 25 81 110 111 34 293 175 168 168 180 185 188 192 197 203 207 210 209 213 214 211 206 204 216 230 245 270 286 247 245 243 256 269 266 276 264 259 266 290 295 308 316 318 315 315 316
62 53 101 285 45 50 105 255 8 173 168 171 184 187 197 198 207 213 219 222 222 226 228 222 218 211 199 35 284 237 279 252 235 241 254 267 276 269 259 278 294 301 307 314 320 314 309 306 301
20 165 129 351 100 107 77 13 346 191 177 160 174 184 199 205 213 221 227 233 233 233 233 230 234 207 212 262 253 247 233 241 234 245 263 278 284 282 291 305 315 310 314 322 318 309 306 305 303
201 161 41 192 11 43 62 8 338 55 162 126 138 162 179 198 213 217 228 235 230 231 232 235 231 214 224 222 250 204 183 175 245 301 288 297 301 299 313 306 304 316 319 317 309 303 304 307 307
169 133 167 285 93 76 65 61 19 55 94 107 120 137 157 172 181 183 207 215 219 218 224 224 231 266 198 209 167 138 345 326 309 294 309 306 303 307 310 306 311 309 308 306 305 307 309 311 314
83 99 88 80 23 89 91 56 38 37 54 100 119 117 117 113 114 125 124 117 115 115 106 83 72 94 109 141 93 360 0 344 321 315 304 298 303 311 310 304 302 300 303 313 316 317 321 326 329
52 105 261 134 94 83 94 41 28 25 80 111 123 122 121 117 115 109 103 92 83 79 79 81 87 89 88 81 51 14 352 323 303 292 292 295 294 293 293 294 297 304 315 320 318 316 319 323 326
81 86 104 122 83 154 41 195 94 76 63 43 141 138 132 127 120 114 106 99 98 99 95 92 94 88 69 13 329 323 309 293 288 286 287 290 292 299 305 310 314 314 310 311 308 319 325 324 322
121 77 116 112 91 101 12 91 260 132 216 208 194 161 145 139 134 119 115 121 122 123 120 127 130 116 326 314 312 308 310 298 294 298 302 303 318 323 324 319 317 320 311 301 310 323 319 319 319
127 68 49 50 70 47 215 126 235 191 193 181 195 180 162 156 141 128 136 134 142 143 140 156 175 262 311 311 308 312 315 322 336 338 329 317 322 322 326 320 311 308 298 318 331 322 321 325 327
68 62 9 359 11 220 334 121 234 209 181 184 188 190 178 167 155 155 160 160 168 162 176 209 243 265 297 309 317 332 337 342 337 330 323 316 321 321 319 307 292 278 269 288 320 326 326 328 332
84 143 153 202 196 232 0 238 250 231 187 187 187 184 175 172 174 177 172 163 165 166 153 151 187 318 327 334 344 343 334 328 326 325 324 319 317 318 312 306 288 294 282 297 329 333 326 326 332
172 58 160 109 8 69 253 290 325 72 133 169 193 193 185 186 186 173 158 154 148 143 138 67 331 334 353 355 358 353 344 335 331 329 325 318 315 313 302 289 274 292 297 305 337 321 324 314 319
122 143 64 9 138 284 299 271 233 189 189 176 186 195 185 178 168 166 162 157 150 143 57 3 340 342 347 349 342 341 338 332 331 327 323 321 315 301 283 275 286 294 307 316 301 305 317 310 312
24 56 58 106 105 159 269 263 224 199 190 180 192 195 186 180 174 166 162 156 167 175 330 318 304 330 339 338 338 337 335 337 336 331 329 330 321 295 286 289 302 309 306 288 296 305 307 311 313
183 129 123 111 202 72 145 274 330 247 204 181 189 187 184 178 167 164 166 176 215 304 290 316 333 335 331 336 335 335 336 340 339 336 333 333 325 314 308 304 293 296 298 277 291 307 306 310 315
Height
1516 1516 1517 1517 1527 1527 1536 1529 1519 1520 1522 1526 1524 1526 1530 1532 1532 1540 1535 1540 1544 1546 1549 1550 1554 1557 1558 1561 1562 1566 1567 1568 1569 1571 1571 1570 1570 1569 1569 1569 1568 1568 1567 1567 1566 1566 1566 1566 1563
1515 1516 1515 1515 1536 1541 1536 1521 1522 1522 1522 1524 1525 1528 1528 1536 1532 1534 1536 1541 1544 1547 1549 1552 1555 1557 1559 1561 1563 1566 1567 1568 1569 1571 1572 1570 1571 1570 1569 1569 1569 1569 1569 1568 1568 1568 1567 1567 1565
1513 1516 1517 1522 1536 1536 1532 1522 1519 1523 1524 1522 1529 1536 1538 1535 1529 1534 1537 1541 1544 1548 1551 1553 1556 1558 1560 1561 1562 1564 1567 1569 1569 1571 1571 1571 1572 1571 1570 1569 1570 1570 1569 1569 1569 1569 1569 1569 1566
1514 1516 1519 1527 1529 1523 1516 1517 1518 1526 1527 1524 1528 1535 1535 1536 1533 1536 1541 1543 1546 1549 1552 1556 1557 1559 1560 1561 1563 1564 1567 1569 1570 1570 1571 1571 1571 1570 1571 1571 1570 1569 1568 1568 1569 1569 1568 1568 1566
1514 1515 1526 1529 1524 1519 1512 1511 1520 1523 1528 1526 1523 1530 1532 1537 1537 1537 1539 1543 1548 1551 1554 1557 1559 1560 1560 1562 1563 1564 1568 1569 1570 1571 1572 1571 1572 1572 1572 1572 1573 1571 1569 1569 1569 1567 1568 1568 1565
1514 1515 1530 1532 1523 1517 1514 1512 1517 1525 1524 1527 1526 1529 1533 1537 1537 1538 1541 1545 1548 1552 1555 1558 1559 1561 1561 1562 1564 1565 1568 1570 1571 1572 1572 1571 1572 1571 1571 1572 1573 1572 1572 1572 1572 1570 1568 1568 1567
1513 1518 1528 1523 1523 1522 1515 1515 1518 1521 1523 1523 1528 1531 1535 1537 1539 1541 1544 1547 1549 1553 1556 1557 1560 1561 1561 1563 1564 1566 1567 1570 1571 1572 1573 1573 1573 1573 1573 1572 1574 1573 1573 1574 1572 1573 1571 1569 1569
1511 1513 1522 1518 1523 1527 1516 1519 1520 1519 1523 1525 1525 1530 1535 1536 1539 1542 1545 1549 1551 1554 1556 1558 1560 1561 1562 1564 1564 1565 1567 1569 1571 1572 1572 1573 1574 1573 1572 1574 1574 1574 1574 1573 1574 1572 1573 1570 1569
1511 1521 1529 1522 1522 1519 1518 1517 1522 1520 1523 1524 1526 1527 1530 1535 1540 1543 1545 1548 1551 1554 1556 1557 1559 1561 1563 1563 1563 1565 1567 1569 1570 1570 1573 1575 1573 1572 1573 1574 1574 1573 1574 1574 1573 1571 1570 1570 1569
1509 1522 1518 1510 1511 1516 1516 1516 1520 1523 1524 1528 1528 1529 1532 1537 1540 1542 1545 1546 1550 1553 1555 1557 1559 1561 1562 1563 1564 1567 1568 1570 1573 1572 1574 1573 1573 1573 1571 1574 1573 1573 1574 1572 1572 1570 1569 1568 1567
1509 1515 1509 1509 1510 1511 1515 1517 1520 1522 1528 1526 1525 1529 1534 1538 1541 1543 1545 1547 1549 1553 1556 1558 1560 1560 1562 1564 1566 1567 1569 1570 1572 1573 1573 1573 1574 1573 1572 1572 1573 1571 1573 1572 1571 1570 1568 1567 1566
1509 1504 1506 1506 1504 1510 1512 1517 1519 1520 1520 1522 1523 1527 1532 1536 1539 1542 1543 1547 1547 1552 1555 1557 1559 1561 1562 1565 1567 1568 1570 1572 1573 1575 1573 1574 1574 1572 1572 1572 1572 1573 1572 1571 1571 1570 1568 1566 1565
1505 1503 1503 1502 1505 1509 1512 1517 1518 1520 1521 1525 1528 1529 1532 1536 1539 1542 1545 1548 1551 1553 1555 1557 1560 1562 1563 1566 1569 1569 1573 1574 1574 1576 1574 1573 1573 1572 1572 1572 1572 1572 1571 1570 1569 1568 1566 1565 1563
1501 1504 1503 1504 1506 1508 1513 1518 1518 1520 1522 1526 1527 1530 1533 1537 1540 1544 1548 1551 1551 1555 1557 1559 1561 1563 1566 1571 1572 1573 1574 1574 1573 1574 1573 1572 1572 1572 1572 1571 1571 1571 1569 1568 1566 1565 1563 1560 1559
1501 1506 1505 1507 1508 1513 1512 1519 1521 1521 1524 1525 1528 1533 1536 1540 1543 1546 1549 1551 1553 1555 1557 1560 1562 1564 1566 1569 1571 1573 1573 1571 1572 1572 1572 1572 1571 1570 1570 1569 1569 1567 1566 1564 1563 1561 1558 1557 1555
1506 1513 1522 1510 1508 1513 1514 1532 1525 1525 1523 1529 1532 1535 1538 1541 1544 1545 1549 1551 1553 1554 1556 1559 1562 1563 1565 1566 1571 1572 1570 1571 1569 1568 1568 1569 1567 1568 1568 1567 1567 1565 1563 1561 1558 1557 1554 1552 1549
1517 1525 1516 1513 1511 1513 1518 1529 1531 1528 1528 1530 1532 1536 1539 1541 1543 1546 1549 1550 1551 1552 1554 1557 1559 1560 1560 1566 1569 1567 1567 1568 1568 1568 1568 1568 1567 1568 1567 1566 1564 1563 1559 1557 1555 1552 1550 1547 1544
1523 1521 1519 1517 1515 1521 1529 1539 1534 1531 1531 1533 1534 1536 1538 1540 1543 1546 1548 1548 1550 1550 1552 1556 1558 1561 1564 1566 1565 1566 1569 1569 1570 1570 1569 1568 1567 1566 1565 1563 1560 1558 1556 1554 1551 1549 1547 1543 1539
1510 1512 1518 1518 1517 1530 1543 1542 1540 1536 1535 1535 1535 1536 1538 1541 1543 1545 1544 1547 1547 1549 1552 1556 1558 1561 1563 1565 1566 1568 1569 1570 1568 1569 1568 1566 1564 1562 1560 1558 1556 1554 1551 1548 1545 1544 1542 1539 1535
1509 1518 1522 1523 1523 1529 1540 1546 1543 1540 1540 1540 1539 1539 1540 1541 1544 1546 1548 1548 1550 1552 1554 1556 1559 1561 1564 1565 1568 1568 1568 1568 1568 1566 1564 1562 1560 1558 1555 1553 1551 1549 1546 1544 1541 1538 1536 1533 1530
1515 1520 1519 1525 1527 1531 1535 1548 1549 1546 1544 1543 1542 1542 1543 1544 1545 1546 1550 1551 1553 1554 1556 1558 1560 1563 1565 1566 1566 1566 1567 1566 1565 1563 1561 1558 1556 1553 1552 1550 1547 1544 1541 1539 1536 1533 1530 1528 1526
1517 1515 1517 1526 1528 1544 1535 1564 1550 1549 1549 1548 1546 1545 1545 1545 1545 1548 1551 1554 1556 1558 1560 1562 1562 1563 1564 1565 1565 1565 1564 1563 1561 1559 1556 1554 1552 1551 1549 1546 1544 1541 1537 1534 1530 1528 1526 1524 1522
1517 1516 1520 1524 1533 1538 1541 1556 1553 1551 1552 1550 1548 1547 1547 1547 1548 1543 1553 1556 1555 1557 1558 1562 1562 1563 1563 1563 1563 1561 1560 1559 1557 1555 1553 1552 1551 1548 1546 1543 1539 1535 1532 1530 1528 1524 1522 1520 1519
1512 1518 1526 1532 1539 1557 1539 1548 1555 1551 1542 1545 1546 1547 1548 1548 1550 1549 1552 1556 1559 1559 1559 1560 1560 1561 1560 1559 1559 1558 1557 1556 1555 1554 1552 1550 1547 1544 1541 1537 1534 1531 1529 1526 1525 1522 1519 1516 1514
1518 1529 1556 1556 1569 1563 1541 1546 1539 1535 1535 1538 1541 1545 1548 1549 1551 1551 1551 1549 1555 1557 1558 1558 1558 1558 1558 1557 1556 1556 1555 1554 1553 1551 1548 1545 1542 1539 1536 1532 1529 1526 1523 1521 1520 1518 1519 1516 1509
1522 1528 1552 1556 1571 1553 1541 1546 1536 1529 1532 1535 1540 1544 1547 1549 1550 1550 1552 1552 1553 1555 1556 1557 1557 1557 1557 1556 1555 1554 1553 1552 1550 1547 1544 1540 1536 1533 1529 1526 1522 1520 1519 1518 1513 1515 1513 1511 1507
1522 1535 1531 1553 1564 1562 1554 1538 1531 1529 1533 1535 1538 1542 1545 1547 1549 1550 1552 1552 1552 1553 1554 1555 1556 1557 1556 1555 1553 1552 1550 1548 1545 1542 1538 1534 1530 1526 1523 1520 1519 1517 1515 1513 1511 1512 1511 1508 1505
1518 1525 1540 1552 1558 1565 1556 1546 1544 1534 1534 1534 1536 1538 1543 1545 1547 1548 1549 1549 1549 1550 1551 1554 1555 1555 1554 1553 1551 1548 1547 1545 1542 1537 1532 1528 1524 1520 1518 1517 1516 1512 1510 1508 1508 1508 1505 1503 1502
1526 1530 1539 1546 1560 1569 1577 1552 1530 1527 1527 1530 1533 1536 1539 1541 1543 1546 1546 1547 1548 1548 1552 1553 1553 1553 1551 1550 1548 1546 1544 1541 1537 1532 1527 1522 1519 1516 1514 1512 1510 1508 1507 1505 1504 1504 1502 1499 1497
1520 1525 1534 1558 1550 1573 1578 1552 1526 1525 1526 1528 1531 1534 1537 1540 1543 1545 1545 1547 1549 1549 1551 1552 1552 1551 1549 1547 1546 1543 1540 1536 1531 1527 1521 1516 1513 1512 1511 1509 1506 1504 1502 1501 1500 1499 1497 1494 1491